Location: Unspecified
(0.0000°N, 0.0000°E)
Time: 10:40:23
(UTC+02:00)

Iridium 47 - Visible Passes

Search period start: 24 April 2018 00:00
Search period end: 04 May 2018 00:00
Orbit: 776 x 779 km, 86.4° (Epoch: 23 April)

Date Brightness Start Highest point End Pass type
(mag) Time Alt. Az. Time Alt. Az. Time Alt. Az.
24 Apr 7.9 07:17:02 10° NE 07:20:50 21° E 07:24:39 10° SE visible
25 Apr 8.0 20:58:01 10° SW 21:01:21 17° W 21:04:41 10° NW visible
26 Apr 6.7 20:23:06 10° SSW 20:27:55 38° W 20:32:41 10° NNW visible
27 Apr 7.0 07:16:16 10° NNE 07:20:54 33° E 07:25:32 10° SSE visible
28 Apr 8.1 06:44:35 10° ENE 06:47:27 15° E 06:50:19 10° SE visible
28 Apr 8.6 21:01:17 10° W 21:01:25 10° W 21:01:31 10° W visible
29 Apr 7.7 20:23:51 10° SW 20:27:57 24° W 20:32:04 10° NW visible
30 Apr 5.9 07:15:53 10° NNE 07:20:57 54° E 07:26:03 10° SSE visible
01 May 7.4 06:43:21 10° NE 06:47:30 24° E 06:51:40 10° SE visible
02 May 8.3 06:13:15 10° E 06:14:04 10° E 06:14:54 10° E visible
02 May 8.1 20:25:15 10° WSW 20:28:01 14° W 20:30:47 10° WNW visible
03 May 5.1 07:15:48 10° N 07:21:01 88° E 07:26:15 10° S visible
